383  
ASUS42 KMHX 311010  
RWRMHX  
WEATHER ROUNDUP FOR EASTERN NORTH CAROLINA  
NATIONAL WEATHER SERVICE NEWPORT/MOREHEAD CITY NC  
600 AM EDT SUN AUG 31 2014  
 
NOTE: "FAIR" INDICATES FEW OR NO CLOUDS BELOW 12,000 FEET  
WITH NO SIGNIFICANT WEATHER AND/OR S TO VISIBILITY
 
 
NCZ015>017-031-032-045>047-102-103-311100-  
NORTH COAST  
 
CITY SKY/WX TMP DP RH WIND PRES REMARKS
 
EDENTON MOCLDY 75 73 96 S5 30.17S  
ELIZABETH CITY MOCLDY 72 72 100 CALM 30.17S  
KITTY HAWK MOSUNNY 75 74 94 CALM 30.17R  
MANTEO PTCLDY 73 72 96 CALM 30.18R  
 

 
 
NCZ045>047-081-094-103-104-311100-  
CENTRAL COAST  
 
CITY SKY/WX TMP DP RH WIND PRES REMARKS
 
FRISCO PTCLDY 78 71 79 SW6 30.18R  
SWANQUARTER N/A 79 N/A N/A SW7 30.15R  
 

 
 
NCZ095-097-098-100-101-311100-  
SOUTHERN COAST  
 
CITY SKY/WX TMP DP RH WIND PRES REMARKS
 
BEAUFORT CLEAR 77 72 84 SE3 30.17R  
CEDAR ISLAND N/A 75 N/A N/A S2 30.21S  
JACKSONVILLE PTCLDY 70 69 97 CALM 30.16S  
NEWPORT NOT AVBL  
PINEY ISLAND SUNNY 75 73 93 S5 30.17R  
WILMINGTON PTCLDY 71 69 93 CALM 30.16R  
 

 
 
NCZ011>013-027>030-043-044-078>080-089-090>093-098-311100-  
COASTAL PLAIN  
 
CITY SKY/WX TMP DP RH WIND PRES REMARKS
 
AHOSKIE MOCLDY 71 70 98 CALM 30.17S  
CLINTON PTCLDY 70 70 100 CALM 30.17S  
ELIZABETHTOWN PTCLDY 71 71 99 CALM 30.17R  
GOLDSBORO PTCLDY 70 69 99 CALM 30.16R  
GREENVILLE MOCLDY 72 72 100 CALM 30.18R  
HAVELOCK CLEAR 71 69 93 CALM 30.18R  
KENANSVILLE PTCLDY 67 66 96 CALM 30.18R  
KINSTON MOCLDY 69 68 98 CALM 30.18R FOG  
NEW BERN PTCLDY 72 68 87 CALM 30.18R  
RICHLANDS PTCLDY 68 64 88 CALM 30.17R  
ROANOKE RAPIDS NOT AVBL  
ROCKY MOUNT MOCLDY 70 69 97 CALM 30.17R FOG  
WASHINGTON MOCLDY 70 70 98 CALM 30.17S  
WHITEVILLE PTCLDY 71 70 96 CALM 30.16R  
 

 
 
AMZ130-135-150-152-154-156-158-170-250-252-270-ANZ085-086-088-633-658-670-311100-  
MARINE OBSERVATIONS  
 
STATION/POSITION TIME TEMP WIND PRES WAVE SWELL
 
AIR SEA DIR/SP/G HT/PER HT/PER  
(UTC) (F) (DEG/KT/KT) (MB) (FT/S) (FT/S)  
CHESAPEAKE LIGHT 0900 77 210/ 10/ 10 1022.0  
BUOY 44014 1000 77 76 180/ 6/ 8 1021.7 3/ 7 2/ 7  
DUCK 1000 77 76 180/ 3/ 3 1021.2  
2E DUCK 1000 N/A 2/ 8  
OREGON INLET 1000 80 81 200/ 7/ 9 1021.8  
BUOY 44095 1000 77 N/A 3/ 7  
20E OREGON INLET NOT AVBL  
HATTERAS CG 1000 81 82 180/ 2/ 5 1022.3  
DIAMOND BUOY 1000 80 180/ 10/ 12 1021.6 3/10 3/10  
CAPE LOOKOUT 0900 81 160/ 6/ 7 1021.2  
BEAUFORT LAB 1000 80 82 170/ 6/ 8 1021.0  
30 SE NEW RIVER 1000 82 83 190/ 10/ 12 1021.7 3/ 8 3/ 8  
5 SE WRIGHTSVILL 1000 78 81 150/ 6/ 8 N/A  
BUOY 41002 0912 81 83 170/ 6/ 8 1022.8 3/ 9 3/ 9  
BUOY 41004 1000 82 83 210/ 6/ 6 1019.8 3/10 3/10  
 

 
 
CLICK HERE TO GO TO PREVIOUS BULLETINS.

The Nexlab NC Page Main Text Page